Terminal Aerodrome Forecast
Issued by NWS

Home | Current Version | Previous Version | Graphics & Text | Print | Product List | Glossary On
Versions: 1 2 3 4 5 6 7 8 9 10 11 12 13 14 15 16 17
000
FTUS43 KGRB 272300
TAFAUW
TAF
KAUW 272335Z 2800/2824 22005KT P6SM SKC
     FM281700 20009G15KT P6SM SCT250=

USA.gov is the U.S. government's official web portal to all federal, state and local government web resources and services.